Regional Weather Roundup
Issued by NWS

Home | Current Version | Previous Version | Text Only | Print | Product List | Glossary Off
Versions: 1 2 3 4 5 6 7 8 9 10 11 12 13 14 15 16 17 18 19 20 21 22 23 24 25 26 27 28 29 30 31 32 33 34 35 36 37 38 39 40 41 42 43 44 45 46 47 48 49 50

000
ASUS43 KOAX 230710
RWRNE

WEATHER ROUNDUP FOR NEBRASKA
NATIONAL WEATHER SERVICE OMAHA NE
200 AM CDT SAT AUG 23 2014

NOTES: SATELLITE DATA IS BEING USED TO AUGMENT CLOUD COVER ABOVE
       12000 FEET.
       "FAIR" INDICATES FEW OR NO CLOUDS BELOW 12,000 FEET WITH NO
       SIGNIFICANT WEATHER AND/OR OBSTRUCTIONS TO VISIBILITY.

  * THESE STATIONS DO NOT REPORT WEATHER SUCH AS RAIN...SNOW OR FOG.

NEZ001>004-019>022-054>056-230800-
NEBRASKA PANHANDLE

CITY           SKY/WX    TMP DP  RH WIND       PRES   REMARKS
SCOTTSBLUFF    CLOUDY    63  60  90 E5        29.97F
ALLIANCE       LGT RAIN  62  61  96 NE7       29.97R
CHADRON        CLOUDY    67  59  75 SE12      29.96F
KIMBALL        CLOUDY    60  59  97 W5        30.01S
SIDNEY         CLOUDY    61  58  90 E9        29.98F
$$

NEZ057>060-069>072-079>082-230800-
SOUTHWEST NEBRASKA

CITY           SKY/WX    TMP DP  RH WIND       PRES   REMARKS
NORTH PLATTE   CLOUDY    67  66  97 SE16G23   29.88F
IMPERIAL       CLOUDY    66  64  93 E6        29.92F
LEXINGTON      LGT RAIN  67  66  96 NE7       29.91F
MCCOOK         CLOUDY    67  65  93 E6        29.90F
OGALLALA       CLOUDY    63  62  95 E6        29.93F
$$

NEZ005>010-023>029-035>040-094-230800-
NORTH CENTRAL NEBRASKA

CITY           SKY/WX    TMP DP  RH WIND       PRES   REMARKS
VALENTINE      RAIN      68  64  87 SE14G24   29.98R FOG
AINSWORTH      TSTM      67  66  96 SW7G22    29.94F
BROKEN BOW     RAIN      68  32  26 SE15G21   29.94F
O`NEILL        RAIN      68  67  96 S13       29.93F
ORD            RAIN      67  65  93 S6        29.94F
THEDFORD       CLOUDY    66  65  94 E3        29.92F
$$

NEZ041-046>049-061>064-073>077-083>087-230800-
SOUTH CENTRAL NEBRASKA

CITY           SKY/WX    TMP DP  RH WIND       PRES   REMARKS
GRAND ISLAND   LGT RAIN  69  66  90 MISG      29.97R
AURORA         CLOUDY    69  69 100 N9        29.92F
HASTINGS       LGT RAIN  68  65  90 N9        29.93F
HEBRON         CLOUDY    73  68  84 NE8       29.92F
HOLDREGE       LGT RAIN  67  65  94 N10       29.92F
KEARNEY *      CLOUDY    66  66 100 NW5       29.95F
YORK           CLOUDY    70 N/A N/A NE8       29.95S
$$

NEZ011>018-030>034-042>045-230800-
NORTHEAST NEBRASKA

CITY           SKY/WX    TMP DP  RH WIND       PRES   REMARKS
NORFOLK        TSTM      69  66  90 CALM      29.96F FOG
ALBION         RAIN      67  65  93 NW6       29.94F
BLAIR          TSTM      73  71  93 W17G26    29.98R
FREMONT        CLOUDY    70  68  93 NW9       30.00F
TEKAMAH        LGT RAIN  73  71  93 W14G21    29.97R
WAYNE          RAIN      69  68  96 S3        29.97F
$$

NEZ050>053-065>068-078-088>093-230800-
SOUTHEAST NEBRASKA

CITY           SKY/WX    TMP DP  RH WIND       PRES   REMARKS
LINCOLN        CLOUDY    71  68  90 N12       29.96R
OMAHA EPPLEY   TSTM      75  72  90 SW14      29.97R FOG
BEATRICE       CLOUDY    74  73  97 N8        29.91S
FALLS CITY     MOCLDY    76  74  93 E6        29.88S
NEBRASKA CITY  CLOUDY    74  74 100 NW6       29.90F
PLATTSMOUTH    TSTM      74  71  90 N8        29.91F
$$

NEZ044-045-051>053-067-230800-
OMAHA AREA

CITY           SKY/WX    TMP DP  RH WIND       PRES   REMARKS
OMAHA EPPLEY   TSTM      75  72  90 SW14      29.97R FOG
BLAIR          TSTM      73  71  93 W17G26    29.98R
FREMONT        CLOUDY    70  68  93 NW9       30.00F
MILLARD        CLOUDY    73  70  92 NW7       29.98R
OFFUTT AFB     TSTM      72  72 100 N17       29.90F FOG
PLATTSMOUTH    TSTM      74  71  90 N8        29.91F
WAHOO          LGT RAIN  70  67  90 CALM      29.98S
$$


USA.gov is the U.S. government's official web portal to all federal, state and local government web resources and services.